User: anonymous   Login
Location: Mentone
(34.5413°N, 85.5351°W)
Time: 23:41:47
(UTC-06:00)
Language:

Cosmos 2150 Rocket - Orbit

View from above orbital plane
View from above orbital plane
View from above satellite
View from above satellite

Ground track
Ground track

The orbit data is extracted from the following two-line orbital elements,

1 21419U 91041B   16340.92832522  .00000010  00000-0  13105-4 0  9994
2 21419  74.0403 293.0079 0042390 267.3483 147.1192 14.33833306332779
Epoch (UTC): 05 December 2016 22:16:47
Eccentricity: 0.0042390
inclination: 74.0403°
perigee height: 748 km
apogee height: 809 km
right ascension of ascending node: 293.0079°
argument of perigee: 267.3483°
revolutions per day: 14.33833306
mean anomaly at epoch: 147.1192°
orbit number at epoch: 33277

The dashed part of the orbit path shows where the satellite is in the earth's shadow,  

DLR